Location: Cheching
(60.0667°N, 164.2167°W)
Time: 19:43:00
(UTC+00:00)

DX 1 - Pass Details

Date: 02 February 2021
Orbit: 618 x 631 km, 98.5° (Epoch: 26 February)

Event Time Altitude Azimuth Distance (km) Brightness Sun altitude
Rises 15:32:02 0° 136° (SE) 2,905 ? -26.6°
Reaches altitude 10° 15:34:19 10° 129° (SE) 1,999 ? -26.3°
Maximum altitude 15:38:22 40° 60° (ENE) 925 ? -25.8°
Drops below altitude 10° 15:42:27 10° 351° (N) 2,005 ? -25.3°
Enters shadow 15:43:20 - 348° (NNW) 2,357 ? -25.2°
